Wind_Speed
76 77 78 80 81 82 83 83 84 85 85 84 83 82 82 82 83 83 83 84 86 87 88 89 92 94 96 99 102 104 104 102 100 99 98 98 99 98 96 94 94 94 95 97 99 100 99 98 98 99 99 99 99 99 100 99 98 96 95 94 94 94 95 93 90 88 90 92 93 94 94 92 89 86 84 83 81 78 75 72 72 75 78 80 83
73 72 72 73 74 74 76 77 78 79 80 80 80 79 79 79 79 80 80 81 83 84 85 87 89 91 94 97 99 101 101 100 98 98 98 97 97 96 95 92 90 89 90 93 95 96 95 95 95 96 97 97 97 97 97 97 95 93 92 92 92 93 93 92 89 87 87 89 91 92 92 91 87 84 83 81 79 77 75 74 73 74 76 79 82
69 69 69 69 69 70 70 70 71 72 73 74 75 75 75 75 75 76 76 78 80 81 83 85 86 87 89 91 93 94 96 96 96 96 95 95 95 95 93 90 86 85 86 88 90 91 91 91 92 92 93 93 93 93 93 92 91 90 89 88 89 90 91 89 87 84 84 86 89 91 91 89 85 83 80 77 76 76 75 74 73 74 76 79 82
65 65 66 67 68 67 67 67 67 68 69 70 70 71 72 72 72 73 73 75 76 77 79 81 83 85 85 86 87 88 91 92 93 93 92 91 91 92 92 88 84 83 84 85 84 85 86 87 88 89 89 89 88 88 88 88 87 86 85 85 86 87 87 86 85 83 82 83 87 89 89 87 84 80 76 74 73 74 74 73 72 73 76 80 82
61 62 63 64 65 64 64 65 65 65 66 67 67 67 68 69 69 70 70 71 72 73 75 77 79 81 82 83 84 85 87 89 89 88 88 88 88 88 89 87 83 81 82 81 80 81 82 84 85 85 85 85 84 84 84 84 83 82 82 83 84 84 83 83 83 81 79 80 84 86 87 86 82 77 74 72 70 72 72 71 70 73 77 80 82
60 60 61 61 62 62 62 63 63 63 63 64 64 64 65 66 66 67 68 68 69 70 71 73 75 76 77 78 79 80 83 85 86 84 83 85 85 84 84 83 81 80 79 78 77 77 79 81 82 81 81 82 81 80 80 79 79 79 79 80 81 81 80 80 81 79 77 77 80 83 84 83 79 75 72 70 68 70 70 68 69 74 77 79 80
57 57 58 58 59 59 60 60 61 61 61 61 62 62 63 64 64 64 65 66 67 68 69 70 71 72 73 74 74 76 77 79 79 78 78 79 81 80 79 79 78 77 75 74 73 74 75 77 77 77 78 77 77 76 75 75 75 75 75 76 77 76 76 77 78 76 74 75 77 79 80 78 75 73 71 68 68 68 67 66 69 74 78 78 77
53 53 53 54 55 56 57 58 58 58 58 59 60 60 61 62 62 62 62 63 64 65 66 67 68 69 69 69 69 70 71 72 72 72 72 73 75 75 74 73 73 72 71 69 69 70 71 72 72 72 73 72 71 71 71 72 72 72 71 71 72 72 72 74 75 74 72 72 73 75 75 73 72 71 68 67 67 67 67 66 68 73 76 76 76
49 49 49 50 51 53 54 55 56 56 57 57 58 59 59 60 60 60 60 60 61 62 63 64 65 65 65 65 65 66 66 66 66 67 66 67 69 70 68 67 67 68 67 66 65 66 67 67 67 67 67 67 67 67 68 68 68 67 67 68 69 69 70 71 72 71 69 69 70 71 69 69 69 68 67 68 67 65 67 68 68 71 72 72 76
46 46 46 47 49 50 51 52 54 55 56 57 57 59 59 59 60 59 59 58 59 59 60 61 61 61 61 61 62 62 62 62 62 62 62 61 63 64 63 62 64 65 65 63 63 63 63 63 63 63 63 63 62 62 63 63 63 64 65 67 67 67 67 68 68 67 66 66 66 66 65 65 65 65 66 67 65 64 66 68 69 70 70 69 73
44 43 44 45 46 48 50 50 52 54 55 55 56 58 59 60 61 61 60 59 59 58 59 58 58 58 59 59 59 59 59 58 58 59 58 57 58 60 60 60 61 62 62 61 61 60 59 58 59 60 60 59 57 57 58 60 61 63 64 66 65 64 63 64 63 63 62 62 62 61 61 61 61 64 66 65 64 64 66 67 68 67 68 68 71
43 43 42 43 45 46 48 49 51 52 52 53 54 55 57 58 59 60 60 59 59 58 57 56 54 54 54 56 56 55 54 55 55 56 55 53 53 54 56 57 58 59 59 58 58 58 55 55 56 57 56 54 53 53 56 59 61 62 64 63 61 59 59 59 59 59 58 57 58 59 57 57 59 63 64 63 62 64 65 67 67 66 66 67 69
41 41 42 42 43 45 46 48 50 51 50 51 53 53 54 55 56 57 57 57 56 55 53 52 51 50 49 51 52 51 51 51 52 53 52 50 49 50 52 53 55 56 57 56 56 55 54 53 53 52 51 49 49 52 57 59 60 61 62 59 57 56 55 55 55 54 54 55 56 55 54 55 58 60 62 61 61 63 64 65 66 65 64 65 67
41 40 41 42 43 44 46 47 48 49 49 51 52 52 53 53 54 54 54 53 52 51 50 48 47 45 44 45 46 46 47 48 49 49 48 48 46 46 48 50 52 54 55 55 54 52 52 51 50 48 47 46 48 53 57 58 58 59 59 56 54 53 52 52 51 50 52 53 53 52 53 55 56 57 60 61 61 62 62 64 65 64 63 64 66
40 39 40 41 42 43 44 45 47 47 48 50 51 51 51 51 51 51 51 50 49 48 47 45 44 43 41 41 41 42 44 45 45 45 46 45 44 43 46 48 50 53 54 54 52 50 49 49 47 45 45 46 49 53 54 55 56 56 55 53 52 51 49 48 47 48 50 50 49 51 53 53 53 55 58 60 60 60 60 62 64 62 61 63 65
38 38 39 40 41 42 42 43 45 46 47 48 49 49 49 49 49 49 49 48 47 46 45 43 42 41 40 40 39 40 42 43 43 43 43 42 41 41 44 48 50 52 52 52 50 47 46 47 46 44 44 47 50 51 51 53 54 53 53 52 50 49 46 44 45 47 47 47 48 50 50 51 52 54 57 58 58 58 59 61 61 59 58 61 63
36 36 37 38 39 39 39 40 43 45 45 46 47 47 47 47 47 46 46 46 45 44 43 41 39 39 40 40 39 39 40 41 41 41 40 39 40 41 44 48 50 50 49 49 48 45 44 46 45 44 45 46 48 48 49 51 52 51 51 49 48 47 45 43 44 45 45 45 47 47 47 49 52 54 55 56 55 56 57 59 59 57 57 58 60
36 35 36 36 36 36 36 37 40 42 43 44 45 45 45 44 44 44 43 43 42 42 41 39 38 38 39 38 38 39 40 40 40 40 38 38 40 42 43 46 50 49 47 46 47 45 44 45 45 44 45 44 44 45 47 49 49 48 47 46 46 45 43 42 42 43 43 44 44 44 46 49 52 53 53 53 54 54 55 56 57 56 57 57 57
36 36 36 36 35 33 33 35 37 39 40 42 42 42 42 42 41 41 40 39 39 39 38 37 37 37 37 37 37 39 41 41 40 39 38 39 41 42 43 46 50 49 45 44 45 45 45 45 44 43 42 40 41 44 46 46 46 45 44 43 44 43 41 40 40 41 42 42 42 44 46 49 51 51 52 52 52 53 53 53 54 55 56 57 56
36 36 36 36 34 32 32 34 35 37 38 38 38 38 40 40 38 37 36 36 35 35 35 35 34 34 35 36 37 39 40 40 39 39 39 41 42 42 43 46 48 46 43 42 43 44 44 44 43 42 40 39 41 43 43 44 44 43 41 42 42 40 39 39 39 40 40 40 42 45 47 48 49 49 50 51 51 51 50 51 52 53 54 55 56
35 35 36 35 33 32 32 32 34 35 35 35 35 35 37 38 36 34 33 32 32 31 32 32 32 32 33 34 35 36 37 38 39 40 41 42 42 42 43 44 44 43 42 42 42 42 42 42 41 40 39 39 40 40 40 42 42 41 40 40 39 37 37 38 38 38 38 40 43 45 46 46 47 47 48 49 49 49 48 50 51 52 52 52 54
34 34 34 33 32 32 32 32 33 33 33 32 32 33 35 35 33 31 30 29 29 29 29 30 30 30 31 32 34 35 36 38 39 41 42 42 41 42 42 42 42 41 41 41 41 41 41 40 38 37 36 36 36 38 39 40 40 38 36 36 35 35 35 36 36 37 39 41 43 44 44 44 45 46 47 47 47 47 47 49 50 50 50 50 51
33 33 32 32 31 31 31 32 32 32 31 31 31 31 31 31 30 29 27 27 27 27 28 28 29 29 30 31 33 34 36 38 39 40 40 41 41 41 41 41 40 39 39 39 39 38 37 36 34 33 32 33 35 37 38 37 35 34 33 34 33 33 34 35 36 38 40 42 42 43 43 43 43 44 45 45 45 45 46 47 48 48 47 48 50
31 31 30 30 29 29 30 30 30 30 30 29 29 29 28 27 26 26 25 26 26 27 27 27 27 28 29 30 32 34 36 37 39 39 39 39 39 38 38 37 37 36 36 35 34 33 33 32 31 31 32 33 34 35 34 32 31 31 32 32 32 32 33 35 37 39 40 40 40 41 41 42 42 42 43 43 43 44 44 45 46 46 46 46 47
30 30 28 27 27 28 28 28 28 28 28 28 28 26 25 24 23 24 24 25 25 26 26 26 26 27 28 29 31 32 34 35 36 37 37 36 35 34 34 34 34 33 32 31 31 31 31 31 31 31 31 31 31 31 30 30 30 31 31 31 31 32 34 36 38 38 38 38 39 39 40 41 41 41 41 42 43 43 43 43 43 44 45 45 44
29 28 25 24 24 25 26 26 26 26 26 26 25 23 22 22 22 23 24 24 24 24 24 24 25 26 27 28 29 31 31 32 33 33 33 33 33 33 33 33 32 31 31 30 31 30 30 29 29 29 29 29 29 28 28 29 29 29 29 30 31 33 35 36 36 36 37 37 37 38 38 38 39 39 40 41 41 41 41 41 41 42 43 43 42
28 26 23 23 23 24 24 24 24 24 24 24 23 21 21 21 22 22 23 23 23 23 23 23 24 25 26 27 28 29 29 30 31 31 31 32 32 32 32 31 30 29 29 29 29 29 28 28 28 27 27 27 27 27 27 27 27 28 29 30 32 34 34 34 34 35 36 36 36 36 36 37 37 39 39 39 40 40 40 39 39 39 41 42 41
28 25 23 22 22 22 22 22 22 22 22 21 20 20 20 21 21 21 21 21 21 21 21 21 22 23 25 26 27 28 28 29 29 30 30 30 30 29 29 28 28 28 28 28 28 28 27 26 26 26 26 26 26 26 26 26 27 28 30 31 32 32 32 33 34 34 34 34 34 34 35 35 36 38 38 38 38 38 38 38 37 38 39 41 41
27 25 23 22 22 21 21 20 20 20 20 19 18 19 20 20 19 19 19 19 19 19 19 20 20 22 23 25 26 26 26 25 26 26 27 27 27 26 26 26 26 27 26 26 26 25 25 24 25 25 25 24 24 24 25 26 27 29 30 30 30 31 31 32 33 33 33 33 33 33 33 35 36 36 37 37 37 37 37 37 36 36 36 38 39
26 24 23 23 22 21 20 19 18 18 18 18 17 18 18 18 18 17 17 16 17 17 17 18 18 20 21 22 23 22 22 22 22 23 23 24 24 23 23 24 25 25 25 24 24 23 23 24 24 24 24 24 24 25 25 26 27 28 28 28 29 30 31 31 31 31 31 31 31 32 32 33 34 35 35 36 36 36 36 36 36 35 34 35 37
25 24 24 23 22 21 19 18 17 16 16 17 16 16 16 16 15 15 14 14 14 14 14 15 15 16 17 18 19 19 20 20 20 20 20 20 20 21 22 23 24 24 23 23 23 22 22 23 23 24 24 24 24 25 25 25 25 26 26 27 29 29 29 29 29 29 30 29 30 31 32 32 33 34 35 35 35 35 36 36 36 34 34 35 36
25 24 24 23 21 20 19 17 16 15 16 16 16 15 14 13 12 12 11 11 11 11 10 10 11 11 12 14 15 17 18 18 19 19 18 19 20 21 22 23 23 23 22 22 22 23 23 23 24 23 23 23 23 23 23 23 24 25 26 27 27 27 27 27 28 28 28 28 29 30 31 32 33 34 34 34 34 34 35 35 35 34 34 34 35
25 24 23 22 21 20 18 17 16 15 15 15 15 14 11 10 10 9 8 8 8 8 7 7 7 8 9 10 12 14 15 16 17 17 18 19 21 22 22 23 23 22 22 21 22 22 22 22 22 22 21 21 21 21 22 23 23 24 25 25 25 26 26 26 26 26 27 27 28 29 30 32 33 33 34 34 34 34 34 34 34 34 34 34 34
24 23 22 21 19 19 17 16 16 15 14 14 13 11 9 8 8 7 6 5 5 5 5 5 5 5 7 8 10 11 12 13 14 16 17 19 20 21 22 22 21 20 20 20 21 21 21 20 20 19 19 19 19 20 21 22 22 23 23 23 24 24 24 24 24 25 26 27 28 29 30 31 32 33 34 34 34 33 33 33 33 33 33 33 33
23 21 20 19 18 17 16 15 15 14 13 12 11 9 7 7 7 6 5 4 4 4 3 3 3 3 4 5 7 8 9 10 12 13 15 17 18 19 19 18 18 18 18 19 19 18 18 17 17 17 17 18 18 19 19 20 20 21 21 22 22 22 23 23 24 24 26 27 28 29 30 31 32 33 33 33 33 33 33 33 33 32 32 32 32
21 20 19 17 16 15 14 14 13 12 11 10 9 7 6 7 6 5 3 3 3 3 3 2 1 2 2 3 4 5 6 7 8 10 12 13 14 15 15 16 16 16 16 16 16 16 15 15 15 15 16 16 17 17 18 18 19 20 20 21 21 21 22 22 23 25 26 27 29 30 30 31 32 32 33 33 33 33 33 33 32 32 31 31 31
20 19 17 16 15 14 13 13 12 11 10 9 7 6 6 6 5 4 3 3 3 3 3 2 1 0 1 2 3 4 5 6 7 8 9 11 12 13 13 13 13 13 14 14 14 14 13 13 13 13 14 15 15 16 17 17 18 19 19 19 20 21 22 23 24 26 27 28 29 30 30 31 31 32 32 33 33 33 32 32 32 31 30 29 29
19 17 16 15 14 13 12 12 11 10 9 7 6 6 6 6 5 4 3 2 3 3 4 3 3 2 1 2 3 4 5 6 7 8 9 10 11 11 11 11 11 12 12 12 12 12 11 11 12 13 13 14 15 15 16 16 17 17 18 19 20 21 23 24 25 27 28 28 29 29 30 30 31 31 32 32 32 32 32 31 31 30 29 28 28
18 17 15 14 13 12 11 11 10 9 8 7 6 7 7 6 5 5 4 3 3 4 5 5 5 4 3 2 3 3 3 4 4 5 6 7 8 9 9 10 10 10 11 10 10 10 10 11 11 12 13 13 14 14 15 15 15 16 18 19 21 22 24 25 26 27 28 28 29 29 29 30 30 31 31 32 32 32 31 31 30 29 29 28 27
18 16 14 13 12 11 10 10 9 8 7 7 8 8 8 7 6 5 4 3 4 5 6 7 7 7 6 6 5 4 4 4 3 3 4 4 5 6 7 8 8 9 9 9 9 9 9 10 10 11 12 12 12 13 13 14 15 17 19 20 22 23 25 26 27 28 28 28 29 29 29 30 30 31 31 31 31 31 31 30 29 29 28 28 27
17 15 13 12 10 10 9 8 8 8 8 8 9 9 9 7 6 6 5 6 6 7 8 9 9 9 8 8 7 6 6 5 5 4 4 4 5 5 6 6 7 7 7 7 8 8 8 9 9 10 10 10 11 12 13 15 17 18 20 21 23 24 25 26 27 27 28 28 29 29 29 30 30 30 30 30 30 30 30 30 29 29 28 28 27
17 15 12 11 10 9 8 7 7 8 9 10 10 10 9 8 7 7 6 7 7 8 9 9 9 9 9 8 8 7 6 5 5 4 4 5 5 5 5 5 6 6 6 6 6 6 7 7 8 8 9 10 11 13 15 16 18 19 21 22 23 24 25 25 26 27 27 28 28 29 29 29 29 29 29 29 29 30 30 30 29 29 28 28 27
16 14 12 10 9 8 7 7 7 7 9 10 11 10 9 8 7 7 7 7 8 8 9 9 8 8 8 8 7 7 6 5 5 4 4 4 4 4 4 4 4 4 4 4 4 4 5 6 7 9 10 12 13 15 16 18 19 20 21 22 23 23 24 25 26 26 27 27 28 29 29 29 29 29 29 29 29 30 30 30 30 29 29 28 28
16 13 11 10 9 8 7 7 6 7 9 10 10 10 9 8 8 7 7 7 8 8 8 8 8 8 8 7 7 6 6 5 5 4 4 4 3 3 3 2 1 1 1 2 3 5 6 8 9 11 12 13 15 16 17 19 20 20 21 22 23 23 24 25 25 26 26 27 27 28 28 29 29 29 29 30 30 30 31 31 31 30 30 29 28
15 12 11 9 8 8 7 7 6 7 9 10 10 10 9 8 7 7 7 7 7 8 8 8 8 8 7 7 7 6 5 5 5 4 4 4 3 2 2 1 1 2 3 4 6 7 9 10 12 13 14 15 16 17 18 19 20 21 22 23 23 24 24 25 25 25 26 26 27 27 28 29 29 30 30 31 31 31 31 31 31 31 30 30 29
14 12 10 9 7 7 7 6 6 7 8 9 9 9 9 8 7 7 6 6 7 7 8 8 8 8 7 7 7 6 6 5 5 5 4 4 3 2 2 2 3 4 5 7 8 10 11 12 13 14 15 16 17 18 19 20 21 22 23 23 24 24 25 25 25 25 26 26 27 28 28 29 29 30 31 31 32 32 32 32 32 31 31 30 30
13 11 10 8 7 7 7 6 5 6 7 8 9 9 8 8 7 7 6 6 7 7 8 8 8 8 8 8 8 7 7 6 6 5 5 4 3 3 3 4 5 6 8 9 10 12 13 14 15 15 16 17 18 20 21 22 23 23 24 24 24 24 24 25 25 26 26 27 28 28 29 29 30 30 31 32 32 32 32 32 32 32 31 30 30
12 10 9 8 7 7 7 6 5 5 7 8 9 9 8 8 8 7 7 7 7 8 8 8 9 9 9 9 8 8 7 6 6 5 4 4 4 5 6 7 8 9 10 11 12 13 14 15 16 17 18 19 20 22 23 24 24 24 25 25 24 25 25 25 26 26 27 28 28 29 29 30 30 31 32 32 32 32 32 32 31 31 31 30 30
12 10 9 8 7 7 6 5 5 6 7 8 9 9 9 8 8 8 8 8 8 8 8 9 9 9 9 9 8 7 6 5 5 4 4 5 6 7 8 9 10 11 12 13 14 15 16 17 18 19 20 22 23 24 24 25 25 25 25 25 25 25 25 25 26 26 27 27 28 29 30 31 31 32 32 33 33 33 33 32 31 30 30 29 29
12 10 9 8 7 7 6 6 6 7 8 8 9 9 9 9 8 8 8 8 8 9 9 9 9 9 8 8 7 6 5 5 5 6 6 7 8 9 10 11 12 13 14 15 16 17 18 19 21 22 23 24 25 25 25 25 25 25 25 25 25 25 25 25 25 26 26 27 28 29 30 31 32 33 33 33 34 33 33 32 31 29 28 28 28
11 10 9 8 7 7 7 6 7 7 8 9 10 10 9 9 9 8 9 9 9 9 8 8 7 7 6 6 5 5 5 5 6 8 9 10 11 12 12 13 14 15 16 17 18 19 21 22 23 24 25 25 25 25 25 24 24 25 25 25 25 25 25 25 25 26 26 27 28 29 30 31 32 33 34 34 34 34 33 32 31 29 28 27 27
Wind_Direction
270 269 269 269 270 270 270 270 271 271 271 271 271 269 268 266 265 264 263 262 261 260 259 258 258 257 257 258 259 261 263 263 264 264 264 263 264 264 263 261 259 258 258 258 258 258 258 258 259 259 260 260 260 260 260 260 260 261 261 261 261 262 262 263 263 263 264 266 267 269 271 272 273 274 273 272 271 270 268 265 262 260 259 258 258
274 273 272 272 271 271 270 270 270 271 271 271 270 270 268 267 265 264 263 262 261 260 259 258 256 256 255 256 257 259 261 263 263 264 264 265 266 266 266 265 263 261 259 258 258 259 260 260 260 259 260 260 260 260 260 261 261 261 260 260 261 261 262 263 263 263 263 265 266 267 268 270 271 271 271 271 272 272 271 269 266 264 262 261 261
276 276 275 275 273 272 271 271 271 271 271 271 271 270 269 268 267 265 263 262 261 260 259 259 259 258 258 257 258 259 260 261 263 263 264 265 266 267 267 267 265 263 261 259 259 259 260 260 260 260 260 260 260 260 260 261 261 261 260 260 260 260 262 263 263 262 262 263 265 266 267 268 268 269 269 269 271 272 271 270 268 267 265 264 263
273 274 274 273 273 273 272 272 271 270 270 270 269 269 268 268 267 265 264 262 261 260 259 259 260 260 260 260 259 260 260 261 262 263 264 264 265 266 267 267 266 264 262 261 260 260 260 260 260 260 260 260 260 260 260 260 261 261 261 260 260 260 261 261 262 262 261 261 263 264 265 266 267 267 267 267 268 270 270 270 269 268 267 266 265
272 271 271 270 270 271 271 270 269 268 268 268 267 267 267 267 266 265 264 263 262 261 260 259 259 259 259 259 259 260 260 261 262 262 263 264 264 264 266 267 267 265 264 263 262 261 260 260 260 260 260 260 260 259 259 260 260 261 261 261 261 261 261 261 261 261 260 260 260 262 263 264 265 266 265 265 266 268 268 268 268 267 266 266 267
271 270 269 269 269 269 269 268 268 267 267 267 266 266 265 265 264 264 264 264 264 263 262 261 260 260 260 259 259 259 259 260 261 262 262 263 264 264 265 266 266 265 264 263 262 261 260 260 260 260 260 260 259 259 259 260 260 260 260 260 260 261 261 261 260 260 259 258 258 260 262 263 265 266 265 265 266 266 267 266 266 265 265 266 268
271 270 270 270 270 269 268 267 267 267 267 266 266 266 265 264 263 263 263 263 262 262 262 262 261 260 260 259 259 259 258 259 260 261 261 261 262 263 264 264 264 264 264 263 262 260 260 260 260 260 260 259 259 258 259 259 259 259 259 259 259 260 260 259 259 259 258 257 257 258 260 263 265 265 265 265 266 266 266 265 265 265 266 267 268
273 272 272 272 271 271 270 270 269 269 268 268 267 267 267 266 265 264 263 262 261 261 261 261 261 261 260 260 260 260 260 261 261 262 262 261 261 263 263 264 264 264 264 262 261 260 260 260 260 260 260 260 259 258 258 258 258 258 258 258 258 258 258 257 257 257 256 255 256 257 260 263 264 264 265 265 266 266 265 264 264 265 267 269 270
274 273 273 272 272 271 272 272 272 272 272 271 271 270 270 269 268 267 265 264 263 262 261 261 261 261 261 262 262 262 262 262 263 263 263 262 262 263 264 265 265 265 264 263 261 260 260 260 260 260 260 260 259 258 257 257 257 257 257 256 256 256 255 255 255 255 254 254 255 257 259 261 262 264 265 265 265 266 266 265 265 266 268 271 272
276 274 273 272 271 270 270 270 271 271 271 271 272 272 272 272 271 270 269 267 266 265 264 263 263 263 264 263 263 263 264 264 264 264 264 263 264 265 266 267 266 265 265 264 262 260 259 259 259 259 258 258 257 257 257 256 256 255 255 254 254 254 254 254 254 254 253 253 254 256 258 260 261 263 264 264 265 265 265 266 266 268 270 271 272
278 275 273 271 270 270 270 270 269 269 269 269 269 270 271 272 272 272 272 271 269 268 267 266 265 265 265 265 265 265 266 266 265 265 265 264 265 266 267 267 267 266 265 264 262 261 259 258 257 257 257 256 256 256 256 255 254 253 253 253 253 253 253 254 253 253 253 253 255 256 257 258 260 261 262 264 265 265 265 266 267 269 271 271 272
280 278 275 273 272 271 271 271 271 271 271 271 270 271 271 271 271 272 273 273 272 271 270 269 268 266 265 266 266 267 267 267 266 266 266 265 264 265 266 267 266 265 264 263 262 261 260 258 256 256 255 255 255 255 254 253 252 252 252 253 253 253 254 253 253 253 253 253 254 255 256 257 258 260 262 264 265 266 266 268 269 270 271 272 272
282 280 278 276 275 274 274 273 274 274 275 274 274 273 273 272 273 273 273 274 273 273 273 271 270 268 266 266 266 266 266 265 264 264 265 265 264 264 265 265 265 264 263 262 261 260 260 258 257 256 255 254 254 253 252 252 251 252 253 253 254 254 253 253 252 253 253 252 253 254 255 255 257 260 262 263 264 266 268 270 271 272 272 272 272
285 283 281 279 277 276 276 276 276 277 277 276 276 275 275 275 275 275 275 276 275 275 274 273 271 269 267 265 264 264 264 262 261 262 263 264 264 264 264 263 263 262 261 261 260 259 259 258 258 257 255 253 251 250 251 251 251 252 253 254 254 254 253 253 252 252 252 252 253 254 254 255 257 259 261 262 264 266 269 271 272 273 274 273 272
288 286 284 281 279 278 277 277 277 276 275 274 274 275 275 276 276 277 277 278 277 276 274 272 271 269 267 264 262 262 261 260 260 260 261 262 263 263 263 262 260 259 259 259 259 258 258 258 257 255 253 251 249 249 250 251 251 252 253 253 253 253 252 252 251 250 251 251 252 253 255 256 257 259 261 263 265 267 269 271 272 274 275 275 274
292 289 285 283 282 281 281 280 278 277 275 274 274 275 276 277 277 278 278 278 277 275 273 271 270 269 267 264 262 260 260 259 260 260 261 262 263 262 261 260 258 257 257 258 258 258 257 256 255 252 250 249 249 248 249 250 251 252 253 253 252 252 251 250 249 249 250 250 251 253 255 257 258 259 261 264 267 269 271 272 273 274 274 275 275
295 291 287 285 284 284 283 282 279 278 277 276 276 277 278 278 278 278 277 277 276 275 273 272 270 269 267 265 263 262 262 262 262 262 262 263 263 261 259 257 256 255 255 256 257 256 255 254 252 250 248 247 248 248 249 249 249 250 251 252 252 251 249 247 247 248 249 249 251 252 255 257 259 261 263 265 269 271 273 274 274 274 273 273 275
301 296 292 289 288 287 285 282 278 277 277 277 278 280 280 280 279 278 277 276 275 275 274 273 271 268 266 266 266 266 265 264 264 263 262 262 260 258 256 255 255 254 252 252 254 254 253 251 249 247 246 246 247 248 248 249 249 249 250 251 250 248 246 246 247 248 248 249 250 253 255 257 259 262 265 268 270 272 273 275 275 275 275 274 275
302 298 295 293 292 291 287 283 278 277 277 278 280 281 281 280 279 278 278 277 275 274 272 271 269 267 266 266 265 264 263 263 262 262 260 258 255 253 251 249 249 250 250 248 249 249 249 248 247 246 245 245 246 246 247 247 248 248 248 248 247 246 245 245 246 247 248 249 251 253 255 258 261 264 267 269 271 272 273 274 275 276 277 277 277
302 299 297 296 296 294 289 284 281 279 280 281 282 283 281 280 280 279 278 277 275 273 272 270 268 266 264 262 260 258 258 258 258 256 253 250 248 246 244 243 245 247 247 245 244 244 244 244 245 245 243 242 242 243 244 245 245 245 244 244 244 244 244 244 245 246 248 250 252 254 256 259 263 266 269 271 272 272 273 274 275 276 276 278 279
303 300 298 298 297 295 290 287 284 284 285 286 286 284 282 282 282 280 279 277 276 275 273 272 270 266 262 259 257 255 254 253 251 248 246 244 242 240 239 240 241 242 242 241 240 240 240 241 241 241 240 239 240 241 242 243 243 242 242 242 243 243 243 244 245 246 248 251 253 256 258 262 265 268 270 271 272 273 274 274 275 276 277 278 280
304 301 299 299 298 296 292 289 288 289 290 290 288 284 282 282 282 281 279 278 277 276 275 272 269 265 261 258 255 252 250 248 246 244 242 240 238 236 235 235 235 235 235 236 236 236 237 238 238 238 238 239 239 239 240 241 241 241 241 241 241 241 242 244 245 247 249 252 255 258 261 264 266 269 270 271 272 273 273 274 274 275 277 278 280
304 301 300 299 298 295 292 291 291 293 294 293 289 285 283 282 282 281 281 281 279 278 275 271 267 263 260 257 254 251 248 246 244 242 239 237 235 233 232 231 230 230 230 231 232 234 235 236 236 237 237 237 237 238 239 240 241 240 239 239 239 240 241 244 246 248 250 254 257 260 263 266 268 269 270 270 271 272 273 273 274 275 277 278 280
304 302 302 300 297 295 293 293 294 296 296 294 290 286 284 283 284 284 285 283 281 278 275 271 267 262 259 256 253 251 249 246 244 241 239 236 234 232 230 229 228 228 228 230 231 232 233 234 233 233 234 235 236 237 239 239 239 237 237 237 238 240 242 244 247 250 253 256 260 263 266 268 268 269 269 270 271 271 272 273 275 276 277 278 279
305 304 304 301 298 296 296 297 298 298 297 295 291 289 288 288 289 289 287 284 280 278 274 270 265 261 257 254 252 250 247 244 242 240 238 236 233 229 227 226 226 226 226 227 228 229 230 230 230 231 232 233 234 235 235 234 234 234 236 237 239 241 243 247 250 254 257 261 264 267 268 269 270 270 271 271 271 271 272 274 275 277 278 279 280
308 307 306 303 300 298 299 300 301 300 298 295 294 294 295 295 293 291 287 283 280 277 273 268 263 258 254 251 248 245 242 239 238 237 235 232 228 225 225 224 224 223 223 224 225 226 227 226 227 227 228 229 230 230 230 231 232 234 236 238 240 243 246 250 254 258 262 265 267 269 270 271 271 272 272 272 272 273 273 275 276 278 280 281 282
313 312 309 306 303 302 302 303 302 301 299 298 300 301 300 297 294 290 286 282 280 277 272 266 261 256 251 246 242 240 236 233 231 231 230 228 227 226 225 225 223 222 221 222 222 222 222 222 222 222 222 223 224 225 226 228 231 233 236 239 242 246 250 255 258 262 265 267 269 270 271 272 273 273 273 273 274 275 276 277 279 281 282 283 283
318 317 313 309 307 306 306 306 305 303 302 304 305 304 301 297 293 288 284 281 278 275 271 265 260 254 248 243 240 237 235 231 229 228 228 229 229 228 225 223 221 220 219 218 218 219 218 217 216 216 216 217 219 221 223 227 230 233 237 241 246 251 256 260 263 265 268 269 270 271 272 273 273 273 274 274 276 277 279 280 282 283 284 285 285
322 321 317 313 311 310 310 310 309 307 307 308 307 303 298 294 290 286 282 280 278 274 269 263 258 252 248 245 242 240 238 236 233 230 228 228 228 227 223 221 219 218 217 216 215 215 214 212 211 211 212 214 216 219 222 226 231 236 241 246 251 256 260 263 266 268 269 270 271 272 273 273 273 274 276 277 279 280 282 283 284 284 284 285 287
324 324 320 317 316 316 316 315 314 311 309 308 304 299 295 291 287 283 282 281 279 274 268 262 257 254 251 250 248 246 243 241 238 234 232 230 228 225 222 219 218 216 214 212 210 208 207 207 208 209 210 212 215 220 224 230 235 241 247 252 257 260 263 266 268 269 270 271 272 273 273 274 275 277 278 281 283 284 286 286 286 286 286 286 287
327 325 322 321 321 321 320 318 317 314 310 305 301 296 293 289 286 283 283 283 281 275 268 265 263 260 257 255 253 250 246 242 239 237 233 229 224 220 216 214 214 213 210 207 203 201 202 204 206 209 212 215 219 224 230 237 243 248 253 257 260 263 265 267 268 269 270 272 273 273 275 276 278 280 282 283 285 287 287 288 288 288 289 289 288
329 327 325 325 325 323 322 321 320 317 311 304 300 297 293 290 288 288 289 290 289 281 273 271 271 269 264 259 256 252 248 245 240 236 228 221 216 214 211 210 210 209 205 202 199 199 201 205 209 213 217 221 226 232 238 244 249 253 257 260 263 264 265 266 268 269 271 272 273 275 277 279 281 283 284 286 287 287 287 288 289 290 290 290 290
331 329 327 328 327 324 324 324 324 320 312 305 304 302 299 296 297 298 300 303 303 297 288 283 281 275 268 262 257 254 250 247 241 232 223 217 215 213 210 209 209 207 204 201 201 203 207 211 215 219 223 228 234 239 245 250 254 257 260 262 263 264 265 267 269 271 272 274 276 278 280 282 284 285 286 287 287 287 287 288 289 289 290 290 290
333 331 329 329 327 325 326 326 326 321 313 309 311 313 311 311 311 313 317 323 323 316 307 297 290 281 271 264 259 255 251 247 240 232 225 221 218 214 210 210 209 207 205 204 206 209 213 217 221 225 230 236 241 246 250 254 257 259 260 262 263 265 267 269 271 273 274 277 279 281 283 285 286 286 287 287 288 288 288 288 288 289 289 290 290
335 332 331 331 328 327 328 328 325 320 314 314 320 324 327 330 332 333 339 351 357 350 334 316 298 287 277 266 260 256 251 246 239 232 227 223 220 217 214 211 209 207 207 209 212 215 219 224 228 233 238 243 248 252 254 256 258 259 261 263 265 267 270 272 274 276 278 280 282 284 285 286 286 287 287 288 288 289 289 289 289 289 289 290 291
337 334 334 333 329 330 331 329 325 320 316 319 328 339 345 347 349 350 358 17 33 30 17 1 325 288 266 253 248 243 241 238 234 229 224 220 217 215 213 211 211 211 212 215 218 222 226 231 235 240 245 248 250 253 254 256 259 262 264 267 270 272 274 277 279 280 282 283 284 286 286 286 286 287 287 288 288 288 288 288 288 287 288 289 290
339 337 337 335 333 334 334 331 327 323 321 327 341 355 358 357 356 359 8 29 53 62 59 52 55 182 211 211 205 199 201 204 208 208 209 210 210 210 211 213 216 218 219 221 223 226 231 236 239 242 245 248 250 253 256 259 262 265 268 271 275 278 280 282 283 284 285 286 286 287 287 287 287 287 287 287 287 287 287 287 287 287 287 287 289
341 340 340 337 336 338 337 334 332 330 330 340 356 8 8 5 3 5 14 35 62 80 81 77 79 104 157 187 193 192 192 196 201 204 207 209 212 213 214 216 219 221 223 224 225 228 230 234 237 240 244 248 252 256 260 263 267 270 274 278 282 284 285 286 287 287 287 287 287 287 287 287 288 287 287 287 286 286 286 286 286 287 288 289 289
343 343 343 341 341 342 341 339 339 340 345 358 11 17 19 19 15 13 20 38 68 87 90 86 83 85 98 122 151 170 182 192 204 211 213 215 216 216 217 218 219 220 221 221 221 223 227 232 238 243 248 253 257 261 265 270 276 280 284 286 287 288 289 290 290 289 289 288 288 288 288 288 288 287 287 286 286 286 285 285 286 287 288 289 290
345 345 345 345 346 346 345 346 349 354 3 15 23 25 27 29 28 28 38 58 73 83 90 92 91 91 94 100 109 120 133 144 157 174 189 198 204 207 209 212 212 212 213 215 218 225 231 238 244 249 254 259 265 270 277 282 286 288 290 291 292 292 292 291 291 290 290 290 290 290 289 289 288 287 287 286 286 285 285 285 286 287 287 288 289
348 347 347 348 351 351 350 353 1 10 19 27 33 33 33 35 39 45 57 74 82 85 88 92 93 93 94 96 98 100 107 114 124 136 149 160 171 180 189 196 201 205 209 215 222 230 237 244 251 257 264 272 279 285 289 292 293 294 295 295 294 294 293 292 292 292 292 292 291 290 289 288 288 287 287 286 286 286 286 286 286 286 287 287 288
351 350 349 353 358 359 357 1 13 24 32 36 38 38 38 41 48 55 65 76 83 86 87 89 90 91 91 91 91 91 94 98 107 119 135 148 158 169 179 187 196 203 209 217 225 235 246 255 265 274 282 289 292 294 296 297 297 298 297 295 295 295 295 295 295 294 293 292 291 290 289 289 288 288 288 287 287 286 286 286 286 286 286 286 286
354 353 354 360 6 7 5 8 20 35 42 42 41 40 42 46 52 58 64 72 78 82 84 85 86 88 87 87 89 91 93 100 110 122 135 149 158 165 170 178 188 199 211 226 242 258 271 279 287 292 295 297 299 300 300 300 299 298 297 298 298 299 299 298 297 295 294 292 291 290 289 289 289 289 288 288 287 287 286 286 286 286 286 285 285
357 357 358 3 10 15 14 13 28 46 52 49 46 45 47 51 55 57 64 71 75 79 81 82 82 86 89 91 94 99 104 111 118 124 129 135 141 144 149 158 170 207 263 286 296 298 299 300 300 301 302 302 303 303 302 301 301 301 302 303 303 303 302 300 298 296 294 292 291 291 291 290 290 289 289 288 288 287 286 286 286 286 285 285 284
359 1 4 5 12 23 24 21 35 55 61 58 55 51 50 53 57 60 65 70 75 78 81 83 86 90 94 97 100 103 106 109 110 108 108 109 107 102 91 66 12 338 323 316 313 309 307 306 305 305 305 304 304 304 304 305 307 308 308 308 308 306 304 302 300 297 296 294 293 292 291 291 290 290 289 288 288 287 286 286 285 285 285 284 283
2 5 7 7 15 30 33 30 41 61 68 67 64 60 55 53 54 58 63 69 74 78 83 86 89 91 92 93 93 94 93 93 93 90 87 81 72 60 33 3 340 326 320 316 312 309 307 306 306 306 307 307 308 309 311 312 313 313 313 312 310 308 305 304 302 301 299 297 295 294 292 291 290 289 289 288 288 287 286 286 285 285 284 283 283
6 8 8 9 18 33 40 41 49 64 72 72 68 64 57 52 51 54 60 68 74 80 84 86 86 86 86 84 84 82 82 80 78 74 68 55 38 13 351 337 326 320 317 313 311 309 308 307 308 309 310 312 313 315 316 317 317 316 315 313 311 309 308 307 305 304 301 299 297 295 293 291 290 289 289 288 287 287 286 286 285 284 284 283 282
7 8 8 12 23 36 44 47 53 63 69 71 68 64 58 53 51 53 59 64 70 77 81 82 82 81 80 80 78 76 74 71 66 60 47 27 6 349 338 329 323 320 317 314 312 311 311 312 313 314 315 317 318 319 320 320 319 317 315 314 313 312 311 309 307 304 302 299 297 295 294 293 291 290 289 289 288 287 287 286 285 284 284 283 282
7 8 10 18 32 43 46 46 48 55 62 66 66 64 59 56 55 58 62 65 70 75 77 79 80 81 81 80 77 71 66 59 48 33 17 1 348 338 331 327 323 322 320 318 316 316 317 317 318 319 320 322 322 322 321 320 319 318 317 316 315 314 312 310 307 304 301 299 297 296 295 294 293 292 291 290 290 289 288 287 286 285 283 282 281
7 10 15 23 36 45 46 45 46 51 57 62 63 62 59 58 61 65 67 70 75 79 80 81 84 84 84 82 75 64 51 36 19 6 355 346 339 333 330 328 326 324 323 321 321 321 322 322 323 323 324 324 323 322 322 321 320 320 319 318 316 314 312 309 307 304 302 300 298 297 296 295 294 294 293 292 291 291 291 290 289 287 285 284 282
8 14 20 27 36 42 43 46 51 55 60 63 65 64 64 65 67 71 75 79 83 86 86 86 86 84 81 77 66 47 26 9 358 350 344 340 336 333 331 329 327 326 325 325 325 325 325 325 325 325 324 324 323 323 323 323 323 322 321 319 317 315 313 310 308 306 303 302 300 299 298 297 296 295 295 294 294 293 293 293 292 290 288 286 284
Height
10027 10027 10026 10025 10026 10026 10026 10026 10026 10026 10026 10026 10027 10028 10028 10028 10029 10030 10031 10032 10031 10032 10034 10035 10035 10036 10037 10036 10035 10034 10035 10037 10040 10044 10049 10052 10053 10056 10061 10065 10069 10072 10074 10075 10075 10076 10079 10082 10084 10084 10085 10088 10090 10091 10092 10094 10098 10100 10102 10103 10104 10104 10105 10108 10111 10110 10104 10100 10099 10097 10094 10094 10095 10093 10091 10094 10099 10104 10108 10110 10111 10109 10107 10108 10108
10013 10014 10015 10015 10015 10015 10014 10014 10014 10013 10013 10012 10013 10014 10014 10014 10014 10015 10016 10016 10015 10016 10018 10019 10020 10021 10022 10023 10023 10023 10023 10025 10027 10030 10034 10037 10039 10041 10044 10049 10053 10057 10059 10060 10060 10063 10065 10068 10070 10070 10071 10074 10075 10076 10078 10081 10084 10087 10088 10090 10090 10090 10092 10095 10098 10098 10095 10090 10088 10086 10084 10084 10086 10083 10081 10084 10087 10089 10091 10092 10094 10094 10093 10093 10093
10001 10001 10002 10002 10001 10002 10002 10002 10002 10002 10001 10000 10000 10000 10000 10000 10001 10001 10003 10003 10002 10004 10005 10005 10006 10008 10010 10011 10012 10013 10014 10014 10015 10018 10022 10026 10027 10028 10030 10034 10038 10042 10044 10045 10046 10049 10052 10053 10055 10056 10057 10060 10062 10063 10066 10068 10070 10072 10074 10076 10078 10078 10079 10082 10085 10086 10084 10081 10076 10074 10073 10074 10075 10073 10074 10078 10079 10078 10077 10077 10079 10079 10078 10077 10078
9993 9992 9990 9989 9988 9989 9990 9990 9990 9989 9989 9988 9987 9987 9987 9987 9987 9988 9990 9990 9990 9991 9993 9994 9994 9996 9998 10000 10001 10002 10003 10003 10004 10007 10011 10015 10017 10018 10018 10020 10024 10027 10029 10030 10033 10036 10038 10039 10041 10042 10043 10046 10049 10051 10053 10055 10056 10059 10061 10063 10064 10065 10067 10069 10072 10073 10073 10071 10066 10062 10061 10062 10062 10063 10066 10071 10073 10069 10066 10066 10067 10066 10064 10063 10064
9983 9982 9981 9980 9979 9980 9979 9979 9977 9977 9976 9976 9976 9976 9976 9976 9975 9976 9977 9978 9978 9979 9980 9981 9982 9984 9986 9987 9989 9990 9991 9991 9993 9997 10000 10002 10005 10007 10007 10007 10011 10013 10015 10017 10020 10023 10024 10026 10027 10029 10031 10033 10036 10038 10040 10042 10044 10047 10049 10049 10050 10052 10054 10057 10059 10060 10062 10060 10055 10051 10050 10049 10051 10052 10055 10062 10065 10060 10057 10058 10058 10055 10052 10051 10051
9973 9973 9972 9971 9971 9970 9970 9969 9967 9967 9967 9966 9966 9965 9965 9964 9964 9964 9965 9967 9967 9967 9968 9969 9970 9972 9974 9975 9977 9979 9979 9979 9982 9986 9989 9991 9993 9995 9996 9996 9998 10001 10003 10005 10008 10010 10012 10013 10014 10017 10019 10020 10022 10025 10027 10030 10032 10034 10035 10036 10037 10040 10043 10044 10045 10048 10050 10049 10046 10042 10039 10039 10040 10040 10043 10051 10055 10051 10048 10050 10049 10044 10041 10042 10041
9965 9964 9964 9963 9962 9961 9959 9958 9958 9957 9957 9956 9955 9954 9954 9954 9954 9954 9955 9956 9956 9955 9956 9958 9959 9961 9963 9964 9966 9967 9968 9970 9973 9976 9979 9981 9981 9983 9984 9985 9987 9989 9992 9994 9996 9999 10000 10001 10002 10005 10007 10009 10010 10013 10016 10018 10019 10021 10023 10025 10027 10029 10031 10032 10033 10036 10038 10038 10036 10033 10030 10030 10029 10028 10032 10040 10043 10040 10039 10041 10039 10032 10030 10032 10033
9957 9956 9955 9954 9952 9950 9949 9948 9948 9947 9946 9945 9945 9944 9943 9943 9944 9944 9945 9945 9945 9945 9946 9947 9947 9949 9951 9953 9955 9956 9958 9961 9964 9966 9969 9970 9970 9971 9973 9975 9977 9979 9981 9984 9986 9987 9988 9990 9992 9994 9996 9997 9999 10002 10004 10006 10007 10010 10012 10014 10016 10018 10019 10020 10021 10023 10025 10027 10026 10024 10023 10022 10017 10018 10023 10029 10031 10029 10028 10030 10030 10023 10020 10021 10020
9948 9947 9947 9945 9943 9941 9940 9938 9937 9936 9935 9935 9934 9933 9933 9933 9933 9933 9934 9935 9935 9935 9935 9936 9936 9938 9940 9942 9944 9945 9948 9951 9953 9955 9957 9959 9959 9960 9963 9966 9967 9968 9970 9973 9975 9976 9977 9979 9981 9983 9985 9986 9988 9991 9992 9994 9997 9999 10001 10003 10005 10006 10007 10008 10010 10012 10015 10017 10016 10015 10015 10012 10008 10010 10014 10016 10019 10020 10017 10017 10018 10015 10013 10012 10006
9941 9940 9938 9937 9934 9933 9932 9930 9928 9927 9926 9925 9924 9922 9922 9922 9922 9922 9923 9924 9925 9925 9925 9926 9927 9929 9930 9932 9933 9935 9938 9940 9942 9944 9946 9948 9949 9950 9953 9956 9957 9958 9960 9963 9965 9966 9968 9969 9971 9973 9974 9975 9978 9980 9982 9984 9987 9988 9990 9991 9993 9994 9996 9998 10000 10003 10005 10007 10007 10007 10006 10003 10001 10003 10004 10004 10008 10010 10007 10006 10006 10005 10004 10004 9996
9933 9932 9930 9928 9926 9925 9924 9922 9920 9918 9917 9917 9916 9914 9913 9912 9911 9911 9911 9912 9913 9914 9915 9916 9919 9920 9921 9922 9924 9925 9928 9930 9931 9932 9934 9938 9940 9941 9943 9946 9947 9948 9950 9952 9954 9956 9958 9960 9961 9962 9964 9966 9968 9970 9973 9974 9975 9977 9978 9980 9982 9984 9987 9989 9991 9994 9997 9998 9998 9997 9997 9996 9996 9994 9994 9995 9998 9999 9997 9995 9995 9996 9994 9993 9987
9925 9923 9922 9920 9919 9917 9916 9914 9912 9910 9910 9909 9908 9906 9905 9904 9903 9901 9901 9901 9902 9903 9904 9906 9908 9911 9912 9913 9914 9916 9918 9919 9921 9922 9924 9928 9931 9933 9935 9936 9937 9938 9940 9941 9943 9945 9947 9949 9951 9953 9954 9956 9959 9961 9963 9963 9964 9966 9967 9969 9972 9975 9978 9981 9983 9986 9988 9989 9988 9987 9989 9990 9989 9986 9985 9987 9988 9987 9986 9985 9984 9986 9985 9981 9976
9918 9916 9914 9913 9912 9910 9908 9907 9904 9902 9902 9901 9899 9898 9897 9896 9895 9894 9893 9892 9892 9893 9894 9895 9897 9900 9902 9903 9905 9907 9909 9910 9911 9912 9914 9918 9922 9925 9926 9927 9928 9928 9929 9931 9932 9934 9937 9938 9941 9943 9945 9948 9951 9952 9952 9953 9955 9956 9958 9961 9964 9967 9970 9973 9976 9979 9980 9979 9978 9978 9980 9982 9980 9978 9977 9978 9979 9977 9977 9975 9973 9975 9975 9969 9964
9910 9909 9907 9906 9905 9903 9902 9900 9897 9896 9895 9893 9891 9890 9889 9888 9887 9886 9885 9884 9885 9885 9885 9886 9888 9890 9892 9893 9895 9898 9899 9900 9902 9904 9907 9909 9913 9916 9917 9918 9918 9918 9919 9920 9922 9924 9927 9929 9932 9934 9937 9940 9941 9942 9942 9944 9946 9947 9950 9953 9956 9959 9962 9965 9969 9971 9970 9969 9970 9970 9971 9972 9972 9971 9969 9970 9971 9970 9968 9965 9962 9964 9963 9958 9954
9903 9903 9901 9899 9898 9897 9895 9893 9891 9889 9888 9886 9884 9883 9882 9881 9881 9879 9878 9877 9877 9878 9878 9879 9880 9881 9883 9884 9886 9888 9889 9891 9894 9897 9899 9902 9905 9907 9908 9907 9908 9909 9909 9910 9912 9915 9918 9920 9923 9925 9928 9930 9931 9932 9934 9936 9938 9940 9942 9945 9948 9950 9954 9958 9961 9962 9961 9961 9962 9962 9962 9963 9964 9963 9961 9961 9961 9961 9960 9956 9954 9955 9953 9947 9943
9898 9896 9894 9892 9891 9890 9889 9887 9884 9881 9880 9879 9877 9876 9875 9875 9874 9873 9872 9871 9871 9871 9871 9872 9873 9874 9875 9876 9877 9879 9880 9882 9886 9889 9891 9894 9896 9898 9898 9897 9898 9899 9900 9902 9904 9907 9910 9912 9914 9917 9919 9921 9922 9924 9926 9928 9929 9932 9934 9937 9940 9943 9947 9951 9952 9952 9953 9954 9955 9954 9953 9954 9955 9954 9953 9953 9952 9951 9950 9947 9946 9947 9945 9940 9935
9892 9890 9888 9886 9885 9884 9883 9881 9877 9873 9872 9871 9870 9869 9869 9869 9868 9868 9867 9865 9865 9864 9864 9865 9867 9868 9868 9868 9869 9871 9872 9875 9878 9881 9883 9885 9887 9889 9888 9887 9887 9890 9893 9894 9896 9899 9902 9904 9906 9908 9910 9912 9914 9916 9918 9919 9921 9924 9927 9930 9933 9936 9939 9942 9943 9944 9946 9947 9946 9946 9947 9946 9945 9945 9945 9944 9943 9942 9940 9938 9937 9937 9936 9933 9930
9886 9884 9882 9880 9879 9878 9877 9874 9871 9867 9865 9864 9863 9863 9863 9862 9861 9861 9860 9859 9859 9859 9859 9859 9860 9861 9861 9862 9863 9864 9865 9867 9869 9872 9875 9877 9878 9879 9879 9879 9878 9881 9885 9888 9889 9892 9894 9896 9898 9900 9902 9905 9907 9908 9909 9912 9915 9917 9920 9924 9927 9929 9932 9934 9935 9936 9938 9939 9939 9939 9939 9938 9937 9937 9936 9935 9934 9934 9933 9931 9928 9928 9926 9925 9923
9880 9878 9876 9875 9874 9873 9871 9868 9865 9862 9860 9859 9858 9857 9856 9856 9855 9854 9854 9853 9853 9853 9853 9853 9854 9854 9855 9856 9857 9858 9858 9859 9862 9865 9867 9868 9869 9870 9871 9871 9870 9873 9878 9881 9883 9885 9887 9888 9890 9893 9896 9899 9900 9900 9902 9905 9908 9911 9914 9916 9919 9922 9925 9927 9927 9929 9930 9931 9932 9932 9932 9931 9929 9928 9928 9927 9926 9926 9925 9924 9921 9920 9918 9915 9914
9874 9873 9871 9869 9868 9867 9865 9862 9859 9857 9855 9854 9853 9852 9850 9849 9849 9849 9849 9848 9848 9847 9847 9847 9848 9848 9849 9849 9850 9851 9852 9853 9855 9858 9859 9860 9861 9862 9863 9863 9864 9868 9872 9875 9876 9878 9879 9881 9884 9887 9890 9892 9893 9894 9896 9898 9901 9904 9907 9909 9912 9916 9918 9919 9920 9921 9923 9924 9925 9924 9924 9923 9922 9920 9919 9919 9919 9918 9918 9916 9914 9912 9911 9908 9906
9869 9867 9865 9864 9863 9861 9858 9856 9853 9851 9850 9849 9848 9846 9843 9842 9843 9844 9844 9843 9842 9842 9841 9841 9842 9842 9843 9843 9844 9845 9846 9847 9849 9850 9851 9852 9854 9855 9857 9858 9860 9864 9866 9868 9869 9871 9873 9876 9879 9881 9884 9885 9886 9888 9890 9892 9894 9898 9900 9903 9906 9909 9911 9911 9913 9915 9916 9917 9917 9916 9916 9916 9914 9913 9912 9911 9911 9911 9911 9909 9907 9905 9904 9902 9899
9863 9862 9860 9859 9857 9854 9852 9850 9848 9846 9845 9844 9842 9841 9839 9838 9838 9838 9838 9838 9837 9837 9836 9836 9836 9837 9837 9838 9839 9840 9840 9840 9841 9842 9843 9845 9847 9849 9851 9854 9856 9859 9860 9862 9864 9866 9868 9871 9874 9876 9878 9879 9881 9883 9885 9886 9888 9892 9895 9897 9900 9903 9904 9905 9907 9909 9909 9909 9909 9909 9909 9908 9907 9907 9906 9905 9904 9904 9904 9902 9900 9899 9897 9895 9892
9859 9857 9856 9854 9852 9849 9846 9844 9842 9841 9840 9839 9837 9836 9835 9834 9833 9833 9833 9832 9832 9832 9832 9831 9831 9832 9832 9832 9833 9833 9833 9833 9834 9835 9837 9839 9841 9843 9846 9849 9852 9854 9855 9857 9860 9862 9864 9866 9868 9870 9872 9874 9876 9877 9879 9881 9884 9887 9889 9892 9895 9897 9898 9899 9901 9902 9902 9903 9902 9902 9901 9901 9901 9900 9899 9899 9898 9897 9896 9895 9893 9892 9891 9888 9885
9855 9853 9851 9849 9847 9844 9842 9840 9838 9836 9835 9834 9832 9832 9831 9830 9829 9828 9828 9827 9827 9827 9827 9827 9827 9827 9827 9827 9827 9827 9828 9828 9829 9831 9833 9835 9837 9840 9842 9845 9847 9849 9851 9853 9855 9857 9859 9860 9862 9865 9867 9869 9871 9873 9875 9877 9879 9882 9884 9886 9889 9890 9892 9893 9894 9895 9895 9896 9895 9895 9894 9894 9894 9894 9893 9892 9891 9891 9890 9888 9886 9884 9883 9881 9879
9852 9849 9848 9845 9842 9840 9837 9836 9834 9832 9831 9830 9829 9828 9827 9826 9825 9824 9823 9823 9823 9823 9823 9823 9823 9823 9822 9822 9823 9823 9824 9825 9826 9828 9830 9832 9835 9837 9839 9840 9842 9844 9846 9848 9849 9851 9853 9855 9858 9860 9862 9864 9866 9868 9871 9873 9874 9876 9879 9881 9883 9885 9886 9886 9887 9888 9889 9888 9888 9888 9888 9887 9887 9886 9886 9884 9884 9883 9883 9881 9879 9877 9875 9873 9872
9848 9846 9844 9841 9838 9836 9834 9832 9830 9828 9827 9826 9825 9824 9823 9822 9821 9821 9820 9820 9819 9819 9819 9819 9819 9819 9819 9819 9819 9820 9821 9822 9823 9825 9827 9829 9831 9833 9835 9836 9838 9840 9841 9843 9844 9846 9849 9851 9854 9856 9858 9860 9862 9865 9867 9868 9870 9872 9874 9876 9877 9878 9879 9880 9881 9882 9882 9882 9882 9882 9881 9881 9880 9879 9878 9877 9876 9876 9875 9874 9873 9870 9868 9865 9864
9844 9842 9840 9837 9834 9832 9830 9829 9827 9825 9824 9822 9821 9820 9819 9818 9818 9818 9817 9816 9816 9816 9815 9815 9815 9815 9815 9815 9815 9816 9817 9819 9820 9821 9823 9825 9827 9829 9831 9833 9834 9836 9837 9839 9841 9843 9845 9847 9850 9852 9855 9857 9859 9861 9862 9864 9866 9867 9869 9870 9871 9872 9874 9875 9875 9876 9876 9876 9876 9876 9875 9874 9873 9872 9871 9871 9870 9869 9867 9866 9865 9863 9860 9858 9856
9840 9838 9836 9834 9831 9829 9827 9826 9824 9822 9820 9819 9818 9817 9816 9816 9815 9815 9814 9813 9813 9812 9812 9812 9812 9812 9812 9812 9812 9812 9814 9815 9817 9819 9821 9822 9824 9827 9828 9830 9831 9832 9834 9836 9837 9839 9841 9844 9847 9849 9851 9853 9855 9856 9858 9860 9861 9863 9864 9865 9866 9868 9869 9869 9870 9870 9871 9871 9870 9870 9869 9868 9867 9866 9865 9864 9864 9862 9860 9859 9858 9856 9854 9851 9849
9837 9835 9833 9830 9828 9826 9824 9823 9821 9819 9817 9816 9816 9815 9814 9814 9813 9812 9811 9810 9810 9810 9809 9809 9809 9809 9809 9809 9809 9810 9811 9813 9815 9817 9819 9820 9822 9824 9825 9827 9828 9829 9831 9833 9835 9837 9839 9841 9843 9845 9847 9849 9851 9852 9854 9855 9857 9858 9859 9861 9862 9863 9864 9864 9865 9865 9865 9865 9865 9864 9863 9862 9861 9860 9859 9857 9856 9855 9853 9852 9851 9850 9848 9846 9843
9835 9833 9830 9827 9825 9823 9821 9820 9819 9817 9815 9814 9814 9813 9812 9812 9811 9810 9809 9808 9808 9807 9807 9807 9806 9806 9806 9807 9807 9808 9809 9811 9812 9814 9816 9818 9819 9821 9823 9824 9825 9826 9828 9830 9832 9835 9837 9838 9840 9842 9843 9845 9847 9848 9850 9851 9853 9854 9856 9857 9858 9859 9859 9860 9860 9860 9860 9860 9859 9858 9857 9856 9855 9854 9852 9851 9850 9848 9846 9845 9844 9843 9842 9840 9838
9833 9830 9827 9824 9822 9820 9819 9818 9816 9815 9813 9812 9812 9812 9811 9810 9809 9808 9807 9806 9806 9805 9805 9804 9804 9804 9804 9805 9806 9807 9808 9809 9811 9812 9814 9816 9817 9819 9820 9821 9822 9824 9826 9829 9830 9832 9834 9836 9837 9839 9840 9842 9844 9845 9847 9848 9850 9851 9852 9853 9854 9855 9855 9856 9855 9855 9855 9854 9853 9852 9851 9850 9849 9847 9846 9845 9843 9842 9840 9839 9838 9837 9836 9834 9833
9830 9828 9824 9822 9820 9818 9817 9816 9814 9813 9812 9811 9811 9810 9809 9808 9807 9806 9805 9804 9803 9803 9803 9802 9802 9803 9803 9804 9805 9806 9807 9809 9810 9811 9813 9814 9815 9817 9818 9819 9821 9823 9825 9827 9829 9830 9832 9833 9835 9836 9838 9840 9841 9843 9844 9846 9847 9848 9849 9850 9850 9851 9851 9851 9851 9850 9850 9849 9848 9846 9845 9844 9843 9841 9839 9838 9837 9836 9835 9834 9833 9832 9831 9829 9827
9828 9825 9822 9820 9818 9816 9815 9814 9813 9812 9811 9810 9809 9809 9808 9807 9806 9804 9803 9802 9802 9801 9801 9801 9801 9801 9802 9802 9804 9805 9806 9808 9809 9810 9811 9812 9813 9815 9816 9818 9819 9822 9824 9826 9827 9829 9830 9831 9833 9835 9836 9838 9839 9841 9842 9843 9844 9845 9846 9846 9846 9846 9846 9846 9846 9845 9844 9843 9842 9841 9839 9838 9836 9835 9833 9832 9832 9831 9830 9829 9828 9827 9826 9824 9822
9826 9823 9821 9818 9817 9815 9813 9812 9811 9811 9810 9809 9808 9807 9806 9805 9804 9803 9802 9801 9801 9800 9800 9800 9800 9800 9801 9802 9803 9804 9805 9807 9808 9809 9810 9811 9812 9813 9815 9816 9818 9821 9823 9824 9826 9827 9828 9830 9832 9833 9835 9836 9837 9838 9839 9840 9841 9842 9842 9842 9842 9842 9842 9841 9841 9840 9839 9838 9837 9835 9834 9832 9830 9829 9828 9827 9826 9825 9824 9824 9823 9822 9821 9819 9817
9825 9822 9819 9817 9816 9814 9813 9812 9811 9810 9809 9808 9807 9805 9804 9804 9803 9802 9801 9801 9800 9800 9800 9800 9800 9800 9801 9801 9802 9803 9804 9806 9807 9808 9809 9810 9811 9813 9815 9816 9818 9819 9821 9822 9824 9826 9827 9829 9830 9831 9833 9834 9835 9836 9837 9837 9837 9838 9838 9838 9837 9837 9837 9836 9836 9835 9834 9833 9832 9830 9828 9827 9825 9824 9822 9821 9820 9820 9819 9818 9817 9817 9816 9814 9813
9823 9820 9818 9817 9815 9814 9812 9811 9811 9810 9809 9808 9806 9805 9804 9803 9802 9801 9801 9800 9800 9799 9799 9799 9800 9800 9800 9801 9802 9803 9804 9805 9806 9807 9809 9810 9811 9813 9814 9815 9816 9818 9819 9821 9823 9824 9826 9827 9828 9830 9831 9831 9832 9833 9833 9833 9834 9834 9834 9833 9833 9833 9832 9832 9831 9830 9829 9828 9827 9825 9823 9822 9820 9819 9817 9816 9815 9815 9814 9813 9813 9812 9811 9810 9808
9823 9820 9818 9816 9814 9813 9812 9811 9810 9810 9808 9807 9806 9804 9804 9803 9802 9801 9800 9800 9799 9799 9799 9799 9799 9800 9800 9801 9801 9802 9803 9804 9805 9807 9808 9809 9810 9812 9813 9814 9815 9817 9818 9820 9821 9823 9824 9825 9826 9827 9828 9829 9829 9830 9830 9830 9830 9830 9830 9830 9829 9829 9828 9827 9826 9825 9824 9823 9822 9820 9819 9817 9815 9814 9813 9812 9811 9810 9809 9809 9808 9807 9806 9805 9804
9822 9819 9817 9815 9814 9813 9812 9811 9810 9809 9808 9806 9805 9804 9803 9803 9802 9801 9800 9800 9799 9799 9799 9799 9800 9800 9800 9801 9801 9802 9803 9803 9804 9806 9807 9808 9809 9810 9811 9813 9814 9816 9817 9818 9820 9821 9822 9823 9824 9825 9825 9826 9826 9827 9827 9827 9827 9827 9826 9826 9825 9824 9824 9823 9822 9821 9820 9818 9817 9816 9814 9812 9811 9809 9808 9807 9806 9805 9805 9804 9803 9802 9802 9801 9799
9821 9819 9817 9815 9814 9813 9812 9811 9810 9809 9807 9806 9805 9804 9803 9803 9802 9801 9801 9800 9800 9799 9799 9800 9800 9800 9801 9801 9802 9802 9803 9804 9804 9805 9806 9807 9808 9809 9811 9812 9813 9815 9816 9817 9818 9819 9820 9821 9822 9822 9823 9824 9824 9824 9824 9824 9824 9824 9823 9822 9821 9820 9819 9818 9817 9816 9815 9814 9812 9811 9810 9808 9807 9805 9804 9803 9802 9801 9800 9799 9799 9798 9797 9796 9795
9820 9818 9817 9816 9814 9813 9812 9811 9810 9809 9807 9806 9805 9804 9804 9803 9802 9802 9801 9801 9800 9800 9800 9800 9800 9801 9801 9801 9802 9802 9803 9804 9804 9805 9806 9807 9808 9809 9810 9811 9813 9814 9815 9815 9816 9817 9818 9819 9820 9820 9821 9821 9822 9822 9822 9821 9821 9820 9820 9819 9818 9817 9815 9814 9813 9811 9810 9809 9808 9806 9805 9804 9803 9802 9800 9799 9798 9796 9795 9794 9794 9793 9792 9791 9790
9820 9818 9817 9816 9815 9813 9812 9811 9810 9809 9807 9806 9805 9805 9804 9803 9803 9802 9802 9801 9801 9800 9800 9800 9800 9801 9801 9801 9802 9802 9803 9804 9804 9805 9806 9807 9808 9808 9810 9811 9811 9812 9813 9814 9815 9816 9817 9817 9818 9819 9819 9819 9819 9819 9819 9818 9818 9817 9816 9815 9814 9813 9811 9810 9808 9807 9805 9804 9803 9802 9801 9800 9799 9798 9796 9795 9793 9792 9790 9789 9789 9788 9787 9787 9786
9819 9818 9817 9816 9815 9814 9813 9811 9810 9809 9808 9807 9806 9805 9805 9804 9803 9803 9802 9802 9801 9801 9801 9801 9801 9801 9801 9801 9802 9802 9803 9803 9804 9805 9806 9806 9807 9808 9809 9810 9810 9811 9812 9813 9814 9814 9815 9816 9816 9816 9817 9817 9816 9816 9816 9815 9815 9814 9813 9812 9810 9809 9807 9805 9804 9802 9801 9800 9798 9798 9797 9796 9795 9793 9792 9791 9789 9787 9786 9784 9784 9783 9783 9782 9781
9819 9818 9817 9816 9815 9814 9813 9812 9810 9809 9808 9808 9807 9806 9806 9805 9804 9804 9803 9803 9802 9801 9801 9801 9801 9801 9801 9802 9802 9803 9803 9804 9804 9805 9806 9806 9807 9807 9808 9809 9810 9810 9811 9812 9812 9813 9813 9814 9814 9814 9814 9814 9814 9813 9813 9812 9812 9811 9809 9808 9806 9805 9803 9801 9800 9798 9797 9795 9794 9793 9792 9791 9790 9789 9787 9786 9784 9783 9781 9780 9779 9778 9778 9777 9777
9818 9817 9816 9816 9815 9814 9813 9812 9811 9810 9809 9808 9808 9807 9807 9806 9805 9805 9804 9803 9803 9802 9802 9802 9802 9802 9802 9802 9803 9803 9804 9804 9805 9805 9806 9806 9807 9807 9808 9809 9809 9810 9810 9811 9811 9811 9811 9812 9812 9812 9812 9812 9811 9811 9810 9809 9808 9807 9805 9804 9802 9801 9799 9797 9795 9794 9792 9791 9790 9789 9788 9786 9785 9784 9782 9781 9780 9778 9777 9775 9774 9773 9773 9772 9772
9818 9817 9817 9816 9815 9815 9814 9813 9812 9810 9810 9809 9809 9808 9808 9807 9807 9806 9805 9805 9804 9803 9803 9803 9803 9803 9803 9803 9803 9804 9804 9805 9805 9805 9806 9806 9807 9807 9808 9808 9808 9809 9809 9809 9809 9810 9810 9810 9810 9810 9810 9809 9809 9808 9807 9806 9804 9803 9801 9800 9798 9796 9795 9793 9791 9790 9788 9787 9786 9784 9783 9782 9780 9779 9777 9776 9775 9774 9772 9771 9770 9769 9768 9767 9767
9819 9818 9817 9816 9815 9815 9814 9814 9813 9811 9810 9810 9810 9809 9809 9809 9808 9807 9806 9806 9805 9804 9804 9804 9804 9804 9804 9804 9804 9805 9805 9805 9806 9806 9806 9807 9807 9807 9808 9808 9808 9808 9808 9809 9809 9809 9809 9809 9809 9808 9808 9807 9806 9805 9804 9802 9801 9799 9797 9796 9794 9792 9791 9789 9787 9786 9784 9782 9781 9780 9778 9777 9775 9774 9772 9771 9770 9769 9768 9766 9765 9764 9763 9762 9762
9819 9818 9817 9816 9815 9815 9815 9814 9813 9812 9811 9811 9810 9810 9810 9810 9809 9808 9808 9807 9806 9806 9805 9805 9805 9805 9805 9805 9806 9806 9806 9806 9806 9807 9807 9807 9807 9808 9808 9808 9808 9808 9808 9808 9808 9808 9808 9808 9807 9806 9805 9804 9803 9802 9800 9799 9797 9795 9794 9792 9790 9789 9787 9785 9783 9781 9780 9778 9776 9775 9773 9772 9770 9769 9768 9766 9765 9764 9763 9762 9760 9759 9758 9757 9756
9820 9818 9818 9817 9816 9815 9815 9815 9814 9813 9812 9811 9811 9811 9811 9810 9810 9809 9809 9808 9808 9807 9807 9807 9806 9806 9806 9807 9807 9807 9807 9807 9807 9807 9808 9808 9808 9808 9808 9808 9808 9808 9808 9808 9808 9807 9807 9806 9805 9804 9803 9801 9800 9798 9797 9795 9794 9792 9790 9788 9787 9785 9783 9781 9779 9777 9775 9773 9772 9770 9768 9767 9765 9764 9763 9761 9760 9759 9758 9757 9756 9755 9753 9752 9751
9820 9819 9818 9817 9816 9816 9816 9815 9814 9814 9813 9812 9812 9812 9811 9811 9811 9811 9810 9809 9809 9808 9808 9808 9808 9808 9807 9808 9808 9808 9808 9808 9808 9808 9808 9808 9809 9809 9809 9808 9808 9808 9808 9807 9806 9806 9805 9804 9803 9801 9800 9798 9797 9795 9793 9792 9790 9788 9786 9785 9783 9781 9779 9778 9776 9774 9772 9770 9768 9765 9764 9762 9760 9759 9757 9756 9754 9753 9752 9751 9751 9750 9749 9748 9747
9821 9820 9819 9818 9817 9816 9816 9816 9815 9814 9814 9813 9813 9813 9813 9812 9812 9812 9811 9811 9810 9810 9810 9809 9809 9809 9809 9809 9809 9809 9809 9809 9809 9809 9809 9809 9809 9809 9809 9808 9808 9807 9806 9806 9805 9804 9803 9801 9800 9798 9797 9795 9793 9792 9790 9788 9786 9784 9783 9781 9779 9778 9776 9774 9772 9770 9768 9766 9764 9762 9759 9757 9755 9753 9752 9750 9749 9748 9746 9746 9745 9745 9744 9743 9742
9822 9821 9819 9818 9817 9817 9817 9816 9816 9815 9814 9814 9814 9814 9814 9814 9813 9813 9812 9812 9812 9811 9811 9811 9811 9810 9810 9810 9810 9810 9810 9810 9810 9810 9810 9809 9809 9809 9808 9807 9807 9806 9805 9804 9803 9801 9800 9798 9797 9795 9793 9792 9790 9788 9786 9784 9783 9781 9779 9777 9776 9774 9772 9770 9768 9766 9764 9762 9760 9758 9755 9753 9751 9749 9747 9745 9743 9742 9741 9740 9739 9739 9738 9738 9737